Year,Month,Day,Hour,Minute,Value (Times are PST for temperature in C)
2021,06,26,00,00,22.00
2021,06,26,00,01,22.00
2021,06,26,00,02,21.90
2021,06,26,00,03,21.90
2021,06,26,00,04,21.90
2021,06,26,00,05,21.80
2021,06,26,00,06,21.80
2021,06,26,00,07,21.80
2021,06,26,00,08,21.80
2021,06,26,00,09,21.80
2021,06,26,00,10,21.80
2021,06,26,00,11,21.80
2021,06,26,00,12,21.70
2021,06,26,00,13,21.70
2021,06,26,00,14,21.70
2021,06,26,00,15,21.70
2021,06,26,00,16,21.70
2021,06,26,00,17,21.70
2021,06,26,00,18,21.70
2021,06,26,00,19,21.70
2021,06,26,00,20,21.60
2021,06,26,00,21,21.60
2021,06,26,00,22,21.60
2021,06,26,00,23,21.60
2021,06,26,00,24,21.60
2021,06,26,00,25,21.60
2021,06,26,00,26,21.50
2021,06,26,00,27,21.50
2021,06,26,00,28,21.50
2021,06,26,00,29,21.40
2021,06,26,00,30,21.40
2021,06,26,00,31,21.40
2021,06,26,00,32,21.30
2021,06,26,00,33,21.30
2021,06,26,00,34,21.30
2021,06,26,00,35,21.30
2021,06,26,00,36,21.30
2021,06,26,00,37,21.30
2021,06,26,00,38,21.20
2021,06,26,00,39,21.20
2021,06,26,00,40,21.20
2021,06,26,00,41,21.10
2021,06,26,00,42,21.10
2021,06,26,00,43,21.10
2021,06,26,00,44,21.10
2021,06,26,00,45,21.10
2021,06,26,00,46,21.10
2021,06,26,00,47,21.10
2021,06,26,00,48,21.10
2021,06,26,00,49,21.10
2021,06,26,00,50,21.10
2021,06,26,00,51,21.10
2021,06,26,00,52,21.10
2021,06,26,00,53,21.00
2021,06,26,00,54,21.00
2021,06,26,00,55,21.00
2021,06,26,00,56,20.90
2021,06,26,00,57,20.90
2021,06,26,00,58,20.90
2021,06,26,00,59,20.90
2021,06,26,01,00,20.90
2021,06,26,01,01,20.80
2021,06,26,01,02,20.80
2021,06,26,01,03,20.80
2021,06,26,01,04,20.80
2021,06,26,01,05,20.80
2021,06,26,01,06,20.80
2021,06,26,01,07,20.80
2021,06,26,01,08,20.80
2021,06,26,01,09,20.70
2021,06,26,01,10,20.70
2021,06,26,01,11,20.70
2021,06,26,01,12,20.70
2021,06,26,01,13,20.70
2021,06,26,01,14,20.70
2021,06,26,01,15,20.70
2021,06,26,01,16,20.70
2021,06,26,01,17,20.70
2021,06,26,01,18,20.70
2021,06,26,01,19,20.60
2021,06,26,01,20,20.60
2021,06,26,01,21,20.60
2021,06,26,01,22,20.50
2021,06,26,01,23,20.50
2021,06,26,01,24,20.40
2021,06,26,01,25,20.40
2021,06,26,01,26,20.40
2021,06,26,01,27,20.30
2021,06,26,01,28,20.30
2021,06,26,01,29,20.30
2021,06,26,01,30,20.30
2021,06,26,01,31,20.20
2021,06,26,01,32,20.20
2021,06,26,01,33,20.20
2021,06,26,01,34,20.20
2021,06,26,01,35,20.20
2021,06,26,01,36,20.20
2021,06,26,01,37,20.20
2021,06,26,01,38,20.10
2021,06,26,01,39,20.10
2021,06,26,01,40,20.00
2021,06,26,01,41,19.90
2021,06,26,01,42,19.90
2021,06,26,01,43,19.80
2021,06,26,01,44,19.80
2021,06,26,01,45,19.80
2021,06,26,01,46,19.70
2021,06,26,01,47,19.70
2021,06,26,01,48,19.70
2021,06,26,01,49,19.70
2021,06,26,01,50,19.70
2021,06,26,01,51,19.70
2021,06,26,01,52,19.70
2021,06,26,01,53,19.70
2021,06,26,01,54,19.70
2021,06,26,01,55,19.70
2021,06,26,01,56,19.60
2021,06,26,01,57,19.60
2021,06,26,01,58,19.60
2021,06,26,01,59,19.60
2021,06,26,02,00,19.60
2021,06,26,02,01,19.60
2021,06,26,02,02,19.60
2021,06,26,02,03,19.60
2021,06,26,02,04,19.60
2021,06,26,02,05,19.60
2021,06,26,02,06,19.60
2021,06,26,02,07,19.60
2021,06,26,02,08,19.60
2021,06,26,02,09,19.60
2021,06,26,02,10,19.60
2021,06,26,02,11,19.50
2021,06,26,02,12,19.50
2021,06,26,02,13,19.50
2021,06,26,02,14,19.50
2021,06,26,02,15,19.40
2021,06,26,02,16,19.40
2021,06,26,02,17,19.30
2021,06,26,02,18,19.30
2021,06,26,02,19,19.30
2021,06,26,02,20,19.30
2021,06,26,02,21,19.30
2021,06,26,02,22,19.30
2021,06,26,02,23,19.30
2021,06,26,02,24,19.30
2021,06,26,02,25,19.30
2021,06,26,02,26,19.30
2021,06,26,02,27,19.20
2021,06,26,02,28,19.20
2021,06,26,02,29,19.20
2021,06,26,02,30,19.20
2021,06,26,02,31,19.20
2021,06,26,02,32,19.20
2021,06,26,02,33,19.20
2021,06,26,02,34,19.10
2021,06,26,02,35,19.10
2021,06,26,02,36,19.10
2021,06,26,02,37,19.00
2021,06,26,02,38,19.00
2021,06,26,02,39,19.00
2021,06,26,02,40,19.00
2021,06,26,02,41,19.00
2021,06,26,02,42,18.90
2021,06,26,02,43,18.90
2021,06,26,02,44,18.90
2021,06,26,02,45,18.90
2021,06,26,02,46,18.90
2021,06,26,02,47,18.90
2021,06,26,02,48,18.90
2021,06,26,02,49,18.90
2021,06,26,02,50,18.80
2021,06,26,02,51,18.80
2021,06,26,02,52,18.80
2021,06,26,02,53,18.80
2021,06,26,02,54,18.80
2021,06,26,02,55,18.80
2021,06,26,02,56,18.80
2021,06,26,02,57,18.80
2021,06,26,02,58,18.70
2021,06,26,02,59,18.70
2021,06,26,03,00,18.70
2021,06,26,03,01,18.70
2021,06,26,03,02,18.70
2021,06,26,03,03,18.70
2021,06,26,03,04,18.70
2021,06,26,03,05,18.70
2021,06,26,03,06,18.70
2021,06,26,03,07,18.70
2021,06,26,03,08,18.70
2021,06,26,03,09,18.70
2021,06,26,03,10,18.70
2021,06,26,03,11,18.70
2021,06,26,03,12,18.70
2021,06,26,03,13,18.70
2021,06,26,03,14,18.70
2021,06,26,03,15,18.70
2021,06,26,03,16,18.70
2021,06,26,03,17,18.70
2021,06,26,03,18,18.70
2021,06,26,03,19,18.60
2021,06,26,03,20,18.60
2021,06,26,03,21,18.60
2021,06,26,03,22,18.60
2021,06,26,03,23,18.60
2021,06,26,03,24,18.50
2021,06,26,03,25,18.50
2021,06,26,03,26,18.50
2021,06,26,03,27,18.50
2021,06,26,03,28,18.40
2021,06,26,03,29,18.40
2021,06,26,03,30,18.40
2021,06,26,03,31,18.40
2021,06,26,03,32,18.40
2021,06,26,03,33,18.40
2021,06,26,03,34,18.40
2021,06,26,03,35,18.30
2021,06,26,03,36,18.30
2021,06,26,03,37,18.30
2021,06,26,03,38,18.30
2021,06,26,03,39,18.20
2021,06,26,03,40,18.20
2021,06,26,03,41,18.20
2021,06,26,03,42,18.20
2021,06,26,03,43,18.20
2021,06,26,03,44,18.20
2021,06,26,03,45,18.20
2021,06,26,03,46,18.20
2021,06,26,03,47,18.20
2021,06,26,03,48,18.20
2021,06,26,03,49,18.20
2021,06,26,03,50,18.10
2021,06,26,03,51,18.10
2021,06,26,03,52,18.10
2021,06,26,03,53,18.10
2021,06,26,03,54,18.00
2021,06,26,03,55,18.00
2021,06,26,03,56,18.00
2021,06,26,03,57,18.00
2021,06,26,03,58,17.90
2021,06,26,03,59,17.90
2021,06,26,04,00,17.90
2021,06,26,04,01,17.90
2021,06,26,04,02,17.90
2021,06,26,04,03,17.80
2021,06,26,04,04,17.80
2021,06,26,04,05,17.80
2021,06,26,04,06,17.80
2021,06,26,04,07,17.80
2021,06,26,04,08,17.70
2021,06,26,04,09,17.70
2021,06,26,04,10,17.70
2021,06,26,04,11,17.70
2021,06,26,04,12,17.70
2021,06,26,04,13,17.70
2021,06,26,04,14,17.70
2021,06,26,04,15,17.60
2021,06,26,04,16,17.60
2021,06,26,04,17,17.60
2021,06,26,04,18,17.60
2021,06,26,04,19,17.60
2021,06,26,04,20,17.60
2021,06,26,04,21,17.60
2021,06,26,04,22,17.60
2021,06,26,04,23,17.60
2021,06,26,04,24,17.60
2021,06,26,04,25,17.50
2021,06,26,04,26,17.50
2021,06,26,04,27,17.50
2021,06,26,04,28,17.50
2021,06,26,04,29,17.50
2021,06,26,04,30,17.50
2021,06,26,04,31,17.40
2021,06,26,04,32,17.40
2021,06,26,04,33,17.40
2021,06,26,04,34,17.40
2021,06,26,04,35,17.40
2021,06,26,04,36,17.40
2021,06,26,04,37,17.40
2021,06,26,04,38,17.40
2021,06,26,04,39,17.40
2021,06,26,04,40,17.40
2021,06,26,04,41,17.30
2021,06,26,04,42,17.30
2021,06,26,04,43,17.30
2021,06,26,04,44,17.30
2021,06,26,04,45,17.30
2021,06,26,04,46,17.30
2021,06,26,04,47,17.30
2021,06,26,04,48,17.30
2021,06,26,04,49,17.30
2021,06,26,04,50,17.30
2021,06,26,04,51,17.30
2021,06,26,04,52,17.30
2021,06,26,04,53,17.30
2021,06,26,04,54,17.30
2021,06,26,04,55,17.30
2021,06,26,04,56,17.30
2021,06,26,04,57,17.20
2021,06,26,04,58,17.20
2021,06,26,04,59,17.20
2021,06,26,05,00,17.20
2021,06,26,05,01,17.20
2021,06,26,05,02,17.20
2021,06,26,05,03,17.20
2021,06,26,05,04,17.20
2021,06,26,05,05,17.20
2021,06,26,05,06,17.20
2021,06,26,05,07,17.10
2021,06,26,05,08,17.10
2021,06,26,05,09,17.10
2021,06,26,05,10,17.10
2021,06,26,05,11,17.10
2021,06,26,05,12,17.10
2021,06,26,05,13,17.10
2021,06,26,05,14,17.10
2021,06,26,05,15,17.00
2021,06,26,05,16,17.00
2021,06,26,05,17,17.00
2021,06,26,05,18,17.00
2021,06,26,05,19,17.00
2021,06,26,05,20,16.90
2021,06,26,05,21,16.90
2021,06,26,05,22,16.90
2021,06,26,05,23,16.90
2021,06,26,05,24,16.90
2021,06,26,05,25,16.90
2021,06,26,05,26,16.90
2021,06,26,05,27,16.90
2021,06,26,05,28,16.90
2021,06,26,05,29,16.90
2021,06,26,05,30,16.80
2021,06,26,05,31,16.80
2021,06,26,05,32,16.80
2021,06,26,05,33,16.80
2021,06,26,05,34,16.80
2021,06,26,05,35,16.80
2021,06,26,05,36,16.80
2021,06,26,05,37,16.80
2021,06,26,05,38,16.80
2021,06,26,05,39,16.80
2021,06,26,05,40,16.80
2021,06,26,05,41,16.80
2021,06,26,05,42,16.80
2021,06,26,05,43,16.70
2021,06,26,05,44,16.70
2021,06,26,05,45,16.70
2021,06,26,05,46,16.70
2021,06,26,05,47,16.70
2021,06,26,05,48,16.70
2021,06,26,05,49,16.70
2021,06,26,05,50,16.70
2021,06,26,05,51,16.70
2021,06,26,05,52,16.70
2021,06,26,05,53,16.70
2021,06,26,05,54,16.70
2021,06,26,05,55,16.70
2021,06,26,05,56,16.70
2021,06,26,05,57,16.70
2021,06,26,05,58,16.70
2021,06,26,05,59,16.70
2021,06,26,06,00,16.70
2021,06,26,06,01,16.70
2021,06,26,06,02,16.70
2021,06,26,06,03,16.70
2021,06,26,06,04,16.70
2021,06,26,06,05,16.70
2021,06,26,06,06,16.70
2021,06,26,06,07,16.70
2021,06,26,06,08,16.70
2021,06,26,06,09,16.70
2021,06,26,06,10,16.70
2021,06,26,06,11,16.70
2021,06,26,06,12,16.70
2021,06,26,06,13,16.70
2021,06,26,06,14,16.70
2021,06,26,06,15,16.70
2021,06,26,06,16,16.70
2021,06,26,06,17,16.70
2021,06,26,06,18,16.70
2021,06,26,06,19,16.70
2021,06,26,06,20,16.70
2021,06,26,06,21,16.70
2021,06,26,06,22,16.70
2021,06,26,06,23,16.70
2021,06,26,06,24,16.70
2021,06,26,06,25,16.70
2021,06,26,06,26,16.70
2021,06,26,06,27,16.70
2021,06,26,06,28,16.70
2021,06,26,06,29,16.70
2021,06,26,06,30,16.70
2021,06,26,06,31,16.70
2021,06,26,06,32,16.70
2021,06,26,06,33,16.70
2021,06,26,06,34,16.70
2021,06,26,06,35,16.70
2021,06,26,06,36,16.70
2021,06,26,06,37,16.70
2021,06,26,06,38,16.70
2021,06,26,06,39,16.70
2021,06,26,06,40,16.70
2021,06,26,06,41,16.70
2021,06,26,06,42,16.70
2021,06,26,06,43,16.70
2021,06,26,06,44,16.70
2021,06,26,06,45,16.70
2021,06,26,06,46,16.80
2021,06,26,06,47,16.80
2021,06,26,06,48,16.80
2021,06,26,06,49,16.80
2021,06,26,06,50,16.80
2021,06,26,06,51,16.80
2021,06,26,06,52,16.80
2021,06,26,06,53,16.90
2021,06,26,06,54,16.90
2021,06,26,06,55,16.90
2021,06,26,06,56,16.90
2021,06,26,06,57,16.90
2021,06,26,06,58,17.00
2021,06,26,06,59,17.00
2021,06,26,07,00,17.00
2021,06,26,07,01,17.10
2021,06,26,07,02,17.10
2021,06,26,07,03,17.10
2021,06,26,07,04,17.10
2021,06,26,07,05,17.20
2021,06,26,07,06,17.20
2021,06,26,07,07,17.20
2021,06,26,07,08,17.20
2021,06,26,07,09,17.30
2021,06,26,07,10,17.40
2021,06,26,07,11,17.40
2021,06,26,07,12,17.40
2021,06,26,07,13,17.50
2021,06,26,07,14,17.50
2021,06,26,07,15,17.60
2021,06,26,07,16,17.70
2021,06,26,07,17,17.80
2021,06,26,07,18,17.80
2021,06,26,07,19,17.90
2021,06,26,07,20,18.00
2021,06,26,07,21,18.00
2021,06,26,07,22,18.10
2021,06,26,07,23,18.20
2021,06,26,07,24,18.30
2021,06,26,07,25,18.30
2021,06,26,07,26,18.40
2021,06,26,07,27,18.50
2021,06,26,07,28,18.60
2021,06,26,07,29,18.70
2021,06,26,07,30,18.80
2021,06,26,07,31,18.90
2021,06,26,07,32,19.00
2021,06,26,07,33,19.00
2021,06,26,07,34,19.10
2021,06,26,07,35,19.10
2021,06,26,07,36,19.10
2021,06,26,07,37,19.20
2021,06,26,07,38,19.20
2021,06,26,07,39,19.20
2021,06,26,07,40,19.20
2021,06,26,07,41,19.20
2021,06,26,07,42,19.20
2021,06,26,07,43,19.20
2021,06,26,07,44,19.20
2021,06,26,07,45,19.20
2021,06,26,07,46,19.30
2021,06,26,07,47,19.30
2021,06,26,07,48,19.30
2021,06,26,07,49,19.30
2021,06,26,07,50,19.40
2021,06,26,07,51,19.40
2021,06,26,07,52,19.40
2021,06,26,07,53,19.50
2021,06,26,07,54,19.60
2021,06,26,07,55,19.70
2021,06,26,07,56,19.80
2021,06,26,07,57,19.80
2021,06,26,07,58,19.90
2021,06,26,07,59,20.00
2021,06,26,08,00,20.10
2021,06,26,08,01,20.20
2021,06,26,08,02,20.30
2021,06,26,08,03,20.50
2021,06,26,08,04,20.60
2021,06,26,08,05,20.70
2021,06,26,08,06,20.80
2021,06,26,08,07,20.90
2021,06,26,08,08,21.00
2021,06,26,08,09,21.10
2021,06,26,08,10,21.20
2021,06,26,08,11,21.30
2021,06,26,08,12,21.40
2021,06,26,08,13,21.50
2021,06,26,08,14,21.60
2021,06,26,08,15,21.70
2021,06,26,08,16,21.80
2021,06,26,08,17,21.80
2021,06,26,08,18,21.90
2021,06,26,08,19,21.80
2021,06,26,08,20,21.80
2021,06,26,08,21,21.80
2021,06,26,08,22,21.80
2021,06,26,08,23,21.80
2021,06,26,08,24,21.80
2021,06,26,08,25,21.80
2021,06,26,08,26,21.80
2021,06,26,08,27,21.70
2021,06,26,08,28,21.70
2021,06,26,08,29,21.70
2021,06,26,08,30,21.80
2021,06,26,08,31,21.80
2021,06,26,08,32,22.00
2021,06,26,08,33,22.10
2021,06,26,08,34,22.20
2021,06,26,08,35,22.30
2021,06,26,08,36,22.40
2021,06,26,08,37,22.50
2021,06,26,08,38,22.70
2021,06,26,08,39,22.70
2021,06,26,08,40,22.80
2021,06,26,08,41,22.90
2021,06,26,08,42,22.90
2021,06,26,08,43,23.00
2021,06,26,08,44,23.10
2021,06,26,08,45,23.20
2021,06,26,08,46,23.30
2021,06,26,08,47,23.30
2021,06,26,08,48,23.40
2021,06,26,08,49,23.50
2021,06,26,08,50,23.60
2021,06,26,08,51,23.60
2021,06,26,08,52,23.60
2021,06,26,08,53,23.70
2021,06,26,08,54,23.70
2021,06,26,08,55,23.70
2021,06,26,08,56,23.80
2021,06,26,08,57,23.80
2021,06,26,08,58,23.90
2021,06,26,08,59,24.00
2021,06,26,09,00,24.10
2021,06,26,09,01,24.10
2021,06,26,09,02,24.20
2021,06,26,09,03,24.20
2021,06,26,09,04,24.30
2021,06,26,09,05,24.30
2021,06,26,09,06,24.30
2021,06,26,09,07,24.30
2021,06,26,09,08,24.30
2021,06,26,09,09,24.40
2021,06,26,09,10,24.50
2021,06,26,09,11,24.60
2021,06,26,09,12,24.70
2021,06,26,09,13,24.70
2021,06,26,09,14,24.80
2021,06,26,09,15,24.80
2021,06,26,09,16,24.80
2021,06,26,09,17,24.80
2021,06,26,09,18,24.80
2021,06,26,09,19,24.90
2021,06,26,09,20,24.90
2021,06,26,09,21,24.90
2021,06,26,09,22,24.90
2021,06,26,09,23,25.00
2021,06,26,09,24,25.10
2021,06,26,09,25,25.10
2021,06,26,09,26,25.20
2021,06,26,09,27,25.20
2021,06,26,09,28,25.30
2021,06,26,09,29,25.30
2021,06,26,09,30,25.40
2021,06,26,09,31,25.40
2021,06,26,09,32,25.40
2021,06,26,09,33,25.40
2021,06,26,09,34,25.40
2021,06,26,09,35,25.50
2021,06,26,09,36,25.50
2021,06,26,09,37,25.60
2021,06,26,09,38,25.70
2021,06,26,09,39,25.70
2021,06,26,09,40,25.80
2021,06,26,09,41,25.80
2021,06,26,09,42,25.90
2021,06,26,09,43,26.00
2021,06,26,09,44,26.10
2021,06,26,09,45,26.20
2021,06,26,09,46,26.20
2021,06,26,09,47,26.20
2021,06,26,09,48,26.20
2021,06,26,09,49,26.20
2021,06,26,09,50,26.20
2021,06,26,09,51,26.10
2021,06,26,09,52,26.20
2021,06,26,09,53,26.20
2021,06,26,09,54,26.30
2021,06,26,09,55,26.40
2021,06,26,09,56,26.50
2021,06,26,09,57,26.60
2021,06,26,09,58,26.60
2021,06,26,09,59,26.70
2021,06,26,10,00,26.70
2021,06,26,10,01,26.70
2021,06,26,10,02,26.70
2021,06,26,10,03,26.80
2021,06,26,10,04,26.80
2021,06,26,10,05,27.00
2021,06,26,10,06,27.10
2021,06,26,10,07,27.20
2021,06,26,10,08,27.20
2021,06,26,10,09,27.30
2021,06,26,10,10,27.40
2021,06,26,10,11,27.40
2021,06,26,10,12,27.50
2021,06,26,10,13,27.60
2021,06,26,10,14,27.70
2021,06,26,10,15,27.80
2021,06,26,10,16,27.90
2021,06,26,10,17,28.10
2021,06,26,10,18,28.20
2021,06,26,10,19,28.40
2021,06,26,10,20,28.50
2021,06,26,10,21,28.60
2021,06,26,10,22,28.70
2021,06,26,10,23,28.80
2021,06,26,10,24,28.90
2021,06,26,10,25,29.00
2021,06,26,10,26,29.00
2021,06,26,10,27,29.10
2021,06,26,10,28,29.10
2021,06,26,10,29,29.20
2021,06,26,10,30,29.20
2021,06,26,10,31,29.20
2021,06,26,10,32,29.20
2021,06,26,10,33,29.10
2021,06,26,10,34,29.10
2021,06,26,10,35,29.00
2021,06,26,10,36,29.00
2021,06,26,10,37,29.00
2021,06,26,10,38,29.10
2021,06,26,10,39,29.10
2021,06,26,10,40,29.20
2021,06,26,10,41,29.30
2021,06,26,10,42,29.40
2021,06,26,10,43,29.50
2021,06,26,10,44,29.60
2021,06,26,10,45,29.80
2021,06,26,10,46,29.90
2021,06,26,10,47,29.90
2021,06,26,10,48,29.90
2021,06,26,10,49,29.90
2021,06,26,10,50,29.90
2021,06,26,10,51,29.90
2021,06,26,10,52,29.90
2021,06,26,10,53,29.90
2021,06,26,10,54,29.90
2021,06,26,10,55,30.00
2021,06,26,10,56,30.10
2021,06,26,10,57,30.10
2021,06,26,10,58,30.10
2021,06,26,10,59,30.10
2021,06,26,11,00,30.10
2021,06,26,11,01,30.20
2021,06,26,11,02,30.20
2021,06,26,11,03,30.20
2021,06,26,11,04,30.20
2021,06,26,11,05,30.20
2021,06,26,11,06,30.30
2021,06,26,11,07,30.30
2021,06,26,11,08,30.40
2021,06,26,11,09,30.50
2021,06,26,11,10,30.70
2021,06,26,11,11,30.90
2021,06,26,11,12,31.00
2021,06,26,11,13,31.20
2021,06,26,11,14,31.40
2021,06,26,11,15,31.50
2021,06,26,11,16,31.60
2021,06,26,11,17,31.70
2021,06,26,11,18,31.70
2021,06,26,11,19,31.80
2021,06,26,11,20,31.90
2021,06,26,11,21,32.00
2021,06,26,11,22,32.10
2021,06,26,11,23,32.30
2021,06,26,11,24,32.40
2021,06,26,11,25,32.50
2021,06,26,11,26,32.50
2021,06,26,11,27,32.60
2021,06,26,11,28,32.50
2021,06,26,11,29,32.50
2021,06,26,11,30,32.50
2021,06,26,11,31,32.50
2021,06,26,11,32,32.50
2021,06,26,11,33,32.50
2021,06,26,11,34,32.50
2021,06,26,11,35,32.60
2021,06,26,11,36,32.60
2021,06,26,11,37,32.60
2021,06,26,11,38,32.70
2021,06,26,11,39,32.70
2021,06,26,11,40,32.80
2021,06,26,11,41,32.80
2021,06,26,11,42,32.90
2021,06,26,11,43,33.00
2021,06,26,11,44,33.10
2021,06,26,11,45,33.20
2021,06,26,11,46,33.20
2021,06,26,11,47,33.30
2021,06,26,11,48,33.30
2021,06,26,11,49,33.30
2021,06,26,11,50,33.40
2021,06,26,11,51,33.40
2021,06,26,11,52,33.50
2021,06,26,11,53,33.60
2021,06,26,11,54,33.60
2021,06,26,11,55,33.70
2021,06,26,11,56,33.70
2021,06,26,11,57,33.80
2021,06,26,11,58,33.80
2021,06,26,11,59,34.00
2021,06,26,12,00,34.10
2021,06,26,12,01,34.10
2021,06,26,12,02,34.10
2021,06,26,12,03,34.20
2021,06,26,12,04,34.20
2021,06,26,12,05,34.30
2021,06,26,12,06,34.30
2021,06,26,12,07,34.40
2021,06,26,12,08,34.40
2021,06,26,12,09,34.40
2021,06,26,12,10,34.50
2021,06,26,12,11,34.60
2021,06,26,12,12,34.70
2021,06,26,12,13,34.80
2021,06,26,12,14,34.90
2021,06,26,12,15,35.00
2021,06,26,12,16,35.10
2021,06,26,12,17,35.20
2021,06,26,12,18,35.20
2021,06,26,12,19,35.20
2021,06,26,12,20,35.20
2021,06,26,12,21,35.30
2021,06,26,12,22,35.30
2021,06,26,12,23,35.30
2021,06,26,12,24,35.40
2021,06,26,12,25,35.50
2021,06,26,12,26,35.60
2021,06,26,12,27,35.70
2021,06,26,12,28,35.80
2021,06,26,12,29,36.00
2021,06,26,12,30,36.10
2021,06,26,12,31,36.10
2021,06,26,12,32,36.20
2021,06,26,12,33,36.20
2021,06,26,12,34,36.20
2021,06,26,12,35,36.20
2021,06,26,12,36,36.20
2021,06,26,12,37,36.20
2021,06,26,12,38,36.20
2021,06,26,12,39,36.20
2021,06,26,12,40,36.20
2021,06,26,12,41,36.10
2021,06,26,12,42,36.10
2021,06,26,12,43,36.10
2021,06,26,12,44,36.20
2021,06,26,12,45,36.20
2021,06,26,12,46,36.30
2021,06,26,12,47,36.30
2021,06,26,12,48,36.40
2021,06,26,12,49,36.40
2021,06,26,12,50,36.40
2021,06,26,12,51,36.50
2021,06,26,12,52,36.60
2021,06,26,12,53,36.60
2021,06,26,12,54,36.70
2021,06,26,12,55,36.80
2021,06,26,12,56,36.90
2021,06,26,12,57,36.90
2021,06,26,12,58,36.80
2021,06,26,12,59,36.80
2021,06,26,13,00,36.70
2021,06,26,13,01,36.70
2021,06,26,13,02,36.70
2021,06,26,13,03,36.70
2021,06,26,13,04,36.70
2021,06,26,13,05,36.80
2021,06,26,13,06,36.90
2021,06,26,13,07,36.90
2021,06,26,13,08,37.00
2021,06,26,13,09,37.00
2021,06,26,13,10,37.10
2021,06,26,13,11,37.10
2021,06,26,13,12,37.10
2021,06,26,13,13,37.10
2021,06,26,13,14,37.10
2021,06,26,13,15,37.20
2021,06,26,13,16,37.20
2021,06,26,13,17,37.30
2021,06,26,13,18,37.20
2021,06,26,13,19,37.20
2021,06,26,13,20,37.10
2021,06,26,13,21,37.10
2021,06,26,13,22,37.10
2021,06,26,13,23,37.20
2021,06,26,13,24,37.30
2021,06,26,13,25,37.30
2021,06,26,13,26,37.30
2021,06,26,13,27,37.30
2021,06,26,13,28,37.40
2021,06,26,13,29,37.30
2021,06,26,13,30,37.30
2021,06,26,13,31,37.20
2021,06,26,13,32,37.20
2021,06,26,13,33,37.10
2021,06,26,13,34,37.00
2021,06,26,13,35,36.90
2021,06,26,13,36,36.90
2021,06,26,13,37,36.90
2021,06,26,13,38,37.00
2021,06,26,13,39,37.00
2021,06,26,13,40,37.10
2021,06,26,13,41,37.00
2021,06,26,13,42,37.00
2021,06,26,13,43,37.00
2021,06,26,13,44,37.10
2021,06,26,13,45,37.10
2021,06,26,13,46,37.10
2021,06,26,13,47,37.20
2021,06,26,13,48,37.30
2021,06,26,13,49,37.30
2021,06,26,13,50,37.40
2021,06,26,13,51,37.40
2021,06,26,13,52,37.40
2021,06,26,13,53,37.50
2021,06,26,13,54,37.60
2021,06,26,13,55,37.70
2021,06,26,13,56,37.80
2021,06,26,13,57,37.90
2021,06,26,13,58,37.90
2021,06,26,13,59,37.90
2021,06,26,14,00,37.80
2021,06,26,14,01,37.80
2021,06,26,14,02,37.70
2021,06,26,14,03,37.70
2021,06,26,14,04,37.60
2021,06,26,14,05,37.60
2021,06,26,14,06,37.60
2021,06,26,14,07,37.70
2021,06,26,14,08,37.80
2021,06,26,14,09,37.90
2021,06,26,14,10,38.10
2021,06,26,14,11,38.20
2021,06,26,14,12,38.30
2021,06,26,14,13,38.30
2021,06,26,14,14,38.30
2021,06,26,14,15,38.30
2021,06,26,14,16,38.30
2021,06,26,14,17,38.30
2021,06,26,14,18,38.30
2021,06,26,14,19,38.40
2021,06,26,14,20,38.30
2021,06,26,14,21,38.30
2021,06,26,14,22,38.20
2021,06,26,14,23,38.10
2021,06,26,14,24,38.10
2021,06,26,14,25,38.10
2021,06,26,14,26,38.10
2021,06,26,14,27,38.10
2021,06,26,14,28,38.20
2021,06,26,14,29,38.30
2021,06,26,14,30,38.30
2021,06,26,14,31,38.30
2021,06,26,14,32,38.20
2021,06,26,14,33,38.20
2021,06,26,14,34,38.10
2021,06,26,14,35,38.10
2021,06,26,14,36,38.10
2021,06,26,14,37,38.00
2021,06,26,14,38,38.00
2021,06,26,14,39,38.10
2021,06,26,14,40,38.10
2021,06,26,14,41,38.20
2021,06,26,14,42,38.20
2021,06,26,14,43,38.20
2021,06,26,14,44,38.20
2021,06,26,14,45,38.20
2021,06,26,14,46,38.20
2021,06,26,14,47,38.30
2021,06,26,14,48,38.30
2021,06,26,14,49,38.30
2021,06,26,14,50,38.30
2021,06,26,14,51,38.30
2021,06,26,14,52,38.30
2021,06,26,14,53,38.30
2021,06,26,14,54,38.30
2021,06,26,14,55,38.30
2021,06,26,14,56,38.30
2021,06,26,14,57,38.30
2021,06,26,14,58,38.20
2021,06,26,14,59,38.20
2021,06,26,15,00,38.20
2021,06,26,15,01,38.20
2021,06,26,15,02,38.10
2021,06,26,15,03,38.10
2021,06,26,15,04,38.20
2021,06,26,15,05,38.10
2021,06,26,15,06,38.10
2021,06,26,15,07,38.20
2021,06,26,15,08,38.20
2021,06,26,15,09,38.30
2021,06,26,15,10,38.30
2021,06,26,15,11,38.30
2021,06,26,15,12,38.30
2021,06,26,15,13,38.30
2021,06,26,15,14,38.30
2021,06,26,15,15,38.30
2021,06,26,15,16,38.30
2021,06,26,15,17,38.30
2021,06,26,15,18,38.30
2021,06,26,15,19,38.30
2021,06,26,15,20,38.20
2021,06,26,15,21,38.20
2021,06,26,15,22,38.20
2021,06,26,15,23,38.30
2021,06,26,15,24,38.30
2021,06,26,15,25,38.30
2021,06,26,15,26,38.30
2021,06,26,15,27,38.30
2021,06,26,15,28,38.30
2021,06,26,15,29,38.30
2021,06,26,15,30,38.30
2021,06,26,15,31,38.30
2021,06,26,15,32,38.30
2021,06,26,15,33,38.40
2021,06,26,15,34,38.30
2021,06,26,15,35,38.30
2021,06,26,15,36,38.40
2021,06,26,15,37,38.40
2021,06,26,15,38,38.30
2021,06,26,15,39,38.30
2021,06,26,15,40,38.40
2021,06,26,15,41,38.30
2021,06,26,15,42,38.40
2021,06,26,15,43,38.30
2021,06,26,15,44,38.30
2021,06,26,15,45,38.20
2021,06,26,15,46,38.20
2021,06,26,15,47,38.20
2021,06,26,15,48,38.20
2021,06,26,15,49,38.20
2021,06,26,15,50,38.20
2021,06,26,15,51,38.20
2021,06,26,15,52,38.20
2021,06,26,15,53,38.20
2021,06,26,15,54,38.10
2021,06,26,15,55,38.10
2021,06,26,15,56,38.00
2021,06,26,15,57,38.00
2021,06,26,15,58,37.90
2021,06,26,15,59,37.90
2021,06,26,16,00,37.90
2021,06,26,16,01,37.90
2021,06,26,16,02,37.90
2021,06,26,16,03,37.80
2021,06,26,16,04,37.80
2021,06,26,16,05,37.80
2021,06,26,16,06,37.80
2021,06,26,16,07,37.80
2021,06,26,16,08,37.90
2021,06,26,16,09,37.90
2021,06,26,16,10,37.80
2021,06,26,16,11,37.80
2021,06,26,16,12,37.80
2021,06,26,16,13,37.80
2021,06,26,16,14,37.80
2021,06,26,16,15,37.80
2021,06,26,16,16,37.80
2021,06,26,16,17,37.80
2021,06,26,16,18,37.80
2021,06,26,16,19,37.80
2021,06,26,16,20,37.80
2021,06,26,16,21,37.80
2021,06,26,16,22,37.80
2021,06,26,16,23,37.70
2021,06,26,16,24,37.70
2021,06,26,16,25,37.80
2021,06,26,16,26,37.80
2021,06,26,16,27,37.70
2021,06,26,16,28,37.70
2021,06,26,16,29,37.70
2021,06,26,16,30,37.80
2021,06,26,16,31,37.80
2021,06,26,16,32,37.80
2021,06,26,16,33,37.70
2021,06,26,16,34,37.70
2021,06,26,16,35,37.60
2021,06,26,16,36,37.60
2021,06,26,16,37,37.60
2021,06,26,16,38,37.60
2021,06,26,16,39,37.70
2021,06,26,16,40,37.70
2021,06,26,16,41,37.70
2021,06,26,16,42,37.80
2021,06,26,16,43,37.80
2021,06,26,16,44,37.80
2021,06,26,16,45,37.80
2021,06,26,16,46,37.80
2021,06,26,16,47,37.80
2021,06,26,16,48,37.70
2021,06,26,16,49,37.70
2021,06,26,16,50,37.70
2021,06,26,16,51,37.70
2021,06,26,16,52,37.70
2021,06,26,16,53,37.70
2021,06,26,16,54,37.70
2021,06,26,16,55,37.70
2021,06,26,16,56,37.60
2021,06,26,16,57,37.60
2021,06,26,16,58,37.60
2021,06,26,16,59,37.60
2021,06,26,17,00,37.60
2021,06,26,17,01,37.50
2021,06,26,17,02,37.60
2021,06,26,17,03,37.60
2021,06,26,17,04,37.60
2021,06,26,17,05,37.60
2021,06,26,17,06,37.60
2021,06,26,17,07,37.60
2021,06,26,17,08,37.60
2021,06,26,17,09,37.60
2021,06,26,17,10,37.60
2021,06,26,17,11,37.60
2021,06,26,17,12,37.50
2021,06,26,17,13,37.50
2021,06,26,17,14,37.50
2021,06,26,17,15,37.50
2021,06,26,17,16,37.40
2021,06,26,17,17,37.40
2021,06,26,17,18,37.40
2021,06,26,17,19,37.40